DNO773 EKCH-EHAM

Flight info

Callsign DNO773
Flight time N/A
Altitude 38000
Route LANGO M611 ALASA DCT WANZA N872 KUBAT T200 BLUFA
Aircraft A320/M-SDE3FGHIRWY/LB1

Departure

Time 2026-05-05 17:07
Airport Copenhagen Kastrup Airport (EKCH)

Arrival

Time N/A
Airport Amsterdam Airport Schiphol (EHAM)
Time Latitude Longitude Altitude Speed Heading
2026-05-05 17:00 55.62745 12.66130 18 ft 0 kts 311°
2026-05-05 17:04 55.62740 12.66099 20 ft 5 kts 225°
2026-05-05 17:05 55.62720 12.66116 19 ft 3 kts 163°
2026-05-05 17:05 55.62637 12.66144 18 ft 22 kts 175°
2026-05-05 17:05 55.62514 12.66213 17 ft 6 kts 141°
2026-05-05 17:05 55.62514 12.66283 17 ft 9 kts 70°
2026-05-05 17:06 55.62597 12.66429 17 ft 20 kts 43°
2026-05-05 17:06 55.62581 12.66661 13 ft 23 kts 134°
2026-05-05 17:06 55.62461 12.66638 20 ft 17 kts 212°
2026-05-05 17:06 55.62224 12.66266 15 ft 92 kts 222°
2026-05-05 17:07 55.61518 12.65160 25 ft 175 kts 221°
2026-05-05 17:07 55.60626 12.63624 940 ft 179 kts 229°
2026-05-05 17:07 55.59684 12.62064 1845 ft 194 kts 223°
2026-05-05 17:07 55.58608 12.60436 2293 ft 214 kts 221°
2026-05-05 17:08 55.57411 12.58657 2739 ft 235 kts 221°
2026-05-05 17:08 55.56208 12.56592 3435 ft 246 kts 234°
2026-05-05 17:08 55.55203 12.53994 4115 ft 264 kts 239°
2026-05-05 17:08 55.54241 12.51183 5026 ft 271 kts 241°
2026-05-05 17:09 55.53285 12.48278 6048 ft 274 kts 241°
2026-05-05 17:09 55.52626 12.46269 6774 ft 274 kts 242°
2026-05-05 17:09 55.52301 12.45288 7136 ft 274 kts 241°
2026-05-05 17:09 55.51336 12.42393 8200 ft 274 kts 240°
2026-05-05 17:10 55.50372 12.39544 9238 ft 274 kts 240°
2026-05-05 17:10 55.49389 12.36668 10219 ft 276 kts 240°
2026-05-05 17:10 55.48354 12.33648 10615 ft 299 kts 240°
2026-05-05 17:10 55.47232 12.30386 10914 ft 323 kts 240°
2026-05-05 17:11 55.46028 12.26903 11348 ft 338 kts 240°
2026-05-05 17:11 55.44790 12.23334 12090 ft 344 kts 240°
2026-05-05 17:11 55.43535 12.19730 12906 ft 347 kts 240°
2026-05-05 17:11 55.42267 12.16099 13727 ft 350 kts 240°
2026-05-05 17:12 55.40993 12.12438 14450 ft 352 kts 240°
2026-05-05 17:12 55.39709 12.08749 15159 ft 355 kts 240°
2026-05-05 17:12 55.38414 12.05028 15858 ft 357 kts 240°
2026-05-05 17:12 55.37111 12.01294 16553 ft 360 kts 240°
2026-05-05 17:13 55.35794 11.97541 17227 ft 362 kts 240°
2026-05-05 17:13 55.34461 11.93760 17887 ft 365 kts 240°
2026-05-05 17:13 55.33120 11.89956 18499 ft 368 kts 240°
2026-05-05 17:13 55.31769 11.86124 19062 ft 370 kts 240°
2026-05-05 17:14 55.30411 11.82266 19611 ft 373 kts 240°
2026-05-05 17:14 55.29045 11.78385 20161 ft 375 kts 240°
2026-05-05 17:14 55.27665 11.74481 20707 ft 378 kts 240°
2026-05-05 17:14 55.26275 11.70562 21242 ft 380 kts 240°
2026-05-05 17:15 55.24871 11.66613 21779 ft 383 kts 239°
2026-05-05 17:15 55.23440 11.62664 22298 ft 385 kts 239°
2026-05-05 17:15 55.21980 11.58709 22808 ft 387 kts 239°
2026-05-05 17:15 55.20504 11.54740 23314 ft 389 kts 239°
2026-05-05 17:16 55.19022 11.50761 23752 ft 392 kts 239°
2026-05-05 17:16 55.17548 11.46801 24149 ft 394 kts 239°
2026-05-05 17:16 55.16049 11.42772 24543 ft 397 kts 239°
2026-05-05 17:16 55.14540 11.38717 24930 ft 399 kts 239°
2026-05-05 17:17 55.13018 11.34637 25319 ft 401 kts 238°
2026-05-05 17:17 55.11488 11.30542 25694 ft 404 kts 238°
2026-05-05 17:17 55.09944 11.26418 26066 ft 406 kts 238°
2026-05-05 17:17 55.08391 11.22283 26433 ft 408 kts 238°
2026-05-05 17:18 55.06828 11.18130 26769 ft 410 kts 238°
2026-05-05 17:18 55.05260 11.13953 27115 ft 412 kts 238°
2026-05-05 17:18 55.03684 11.09755 27444 ft 415 kts 238°
2026-05-05 17:18 55.02101 11.05542 27748 ft 417 kts 238°
2026-05-05 17:19 55.00512 11.01320 28185 ft 416 kts 238°
2026-05-05 17:19 54.98924 10.97115 28607 ft 415 kts 238°
2026-05-05 17:19 54.97334 10.92914 29039 ft 415 kts 238°
2026-05-05 17:19 54.95761 10.88700 29434 ft 415 kts 240°
2026-05-05 17:20 54.94488 10.84217 29887 ft 413 kts 249°
2026-05-05 17:20 54.93632 10.79453 30282 ft 412 kts 255°
2026-05-05 17:20 54.92924 10.74637 30656 ft 411 kts 255°
2026-05-05 17:20 54.92208 10.69816 31018 ft 411 kts 255°
2026-05-05 17:21 54.91494 10.65068 31366 ft 411 kts 255°
2026-05-05 17:21 54.90767 10.60270 31725 ft 411 kts 255°
2026-05-05 17:21 54.90038 10.55472 32080 ft 411 kts 255°
2026-05-05 17:22 54.88575 10.45885 32786 ft 410 kts 254°
2026-05-05 17:22 54.87843 10.41100 33143 ft 410 kts 254°
2026-05-05 17:22 54.87110 10.36318 33506 ft 410 kts 254°
2026-05-05 17:22 54.86375 10.31541 33869 ft 410 kts 254°
2026-05-05 17:23 54.85638 10.26769 34194 ft 409 kts 254°
2026-05-05 17:23 54.84898 10.21991 34498 ft 409 kts 254°
2026-05-05 17:23 54.84158 10.17223 34782 ft 410 kts 254°
2026-05-05 17:23 54.83415 10.12460 35109 ft 407 kts 254°
2026-05-05 17:24 54.82677 10.07744 35538 ft 404 kts 254°
2026-05-05 17:24 54.81939 10.03048 35840 ft 403 kts 254°
2026-05-05 17:24 54.81163 9.98369 36098 ft 404 kts 250°
2026-05-05 17:24 54.80025 9.93918 36313 ft 404 kts 241°
2026-05-05 17:25 54.78555 9.89762 36533 ft 406 kts 239°
2026-05-05 17:25 54.77559 9.87019 36686 ft 406 kts 239°
2026-05-05 17:25 54.75542 9.81470 36991 ft 407 kts 239°
2026-05-05 17:25 54.74033 9.77327 37216 ft 407 kts 238°
2026-05-05 17:26 54.72516 9.73176 37427 ft 409 kts 238°
2026-05-05 17:26 54.70993 9.69012 37625 ft 410 kts 238°
2026-05-05 17:26 54.69469 9.64841 37820 ft 411 kts 238°
2026-05-05 17:26 54.67938 9.60657 37934 ft 412 kts 238°
2026-05-05 17:27 54.66400 9.56465 37942 ft 412 kts 238°
2026-05-05 17:27 54.63322 9.48103 37921 ft 412 kts 238°
2026-05-05 17:28 54.60246 9.39777 37944 ft 411 kts 238°
2026-05-05 17:28 54.57169 9.31464 37934 ft 411 kts 238°
2026-05-05 17:29 54.54110 9.23219 37932 ft 411 kts 238°
2026-05-05 17:29 54.51022 9.14938 37935 ft 411 kts 238°
2026-05-05 17:30 54.47920 9.06656 37943 ft 412 kts 238°
2026-05-05 17:30 54.44812 8.98376 37940 ft 412 kts 238°
2026-05-05 17:31 54.41697 8.90099 37915 ft 412 kts 237°
2026-05-05 17:31 54.38578 8.81835 37929 ft 412 kts 237°
2026-05-05 17:32 54.35454 8.73600 37937 ft 412 kts 237°
2026-05-05 17:32 54.32327 8.65388 37936 ft 411 kts 237°
2026-05-05 17:33 54.29255 8.57320 37939 ft 411 kts 237°
2026-05-05 17:33 54.26125 8.49142 37944 ft 411 kts 237°
2026-05-05 17:34 54.22941 8.41019 37928 ft 411 kts 232°
2026-05-05 17:34 54.19006 8.34161 37911 ft 413 kts 225°
2026-05-05 17:35 54.14847 8.27416 37924 ft 412 kts 225°
2026-05-05 17:35 54.10684 8.20686 37930 ft 412 kts 224°
2026-05-05 17:36 54.06514 8.13968 37928 ft 412 kts 225°
2026-05-05 17:36 54.02349 8.07264 37930 ft 412 kts 224°
2026-05-05 17:37 53.98181 8.00561 37941 ft 413 kts 225°
2026-05-05 17:37 53.94004 7.93853 37925 ft 413 kts 224°
2026-05-05 17:38 53.89818 7.87174 37943 ft 413 kts 224°
2026-05-05 17:38 53.85622 7.80496 37936 ft 413 kts 224°
2026-05-05 17:39 53.81420 7.73836 37939 ft 414 kts 224°
2026-05-05 17:39 53.77215 7.67193 37936 ft 414 kts 224°
2026-05-05 17:40 53.73005 7.60558 37915 ft 414 kts 224°
2026-05-05 17:40 53.68783 7.53922 37912 ft 415 kts 224°
2026-05-05 17:41 53.64552 7.47287 37921 ft 415 kts 224°
2026-05-05 17:41 53.60324 7.40662 37917 ft 416 kts 224°
2026-05-05 17:42 53.56082 7.34048 37920 ft 416 kts 223°
2026-05-05 17:42 53.51864 7.27487 37916 ft 416 kts 223°
2026-05-05 17:43 53.47607 7.20884 37919 ft 417 kts 223°
2026-05-05 17:43 53.43334 7.14274 37939 ft 418 kts 223°